THORAD DELTA 1 DEB, 14879

Orbit data source: Space-Track

THORAD DELTA 1 DEB, 14879 is space debris in SSO originally from a launch on Fri, 15 Nov 1974 UTC launched from the Air Force Western Test Range (AFWTR). Debris objects in space refer to the collection of defunct objects orbiting the Earth. Examples of debris include non-operational satellites, rocket bodies, and fragments generated from explosions, collisions, or faulty payload assembly.

Loading next visibility...
Identifier
14879, 1974-089ES
Orbit
SSO
Country
Flag of USUS
Related business
Manufacturer
Unknown
Mission
Spacecraft
Bus & Motor
Unknown
Mass
Unknown
Launch date (UTC)
1974-11-15 (51 years ago)
Launch vehicle
Unknown
Launch site
Air Force Western Test Range (AFWTR)
Object type
Payload
Rocket body
Debris
Shape & HBR
Unknown shape, 0.1 m
Radar Cross Section
Small (<0.1 m²)

Expand to show TLE details & history
Last TLE update: 2 days ago

TLE from 2 days ago
0 THORAD DELTA 1 DEB
1 14879U 74089ES  25286.40565891  .00000053  00000-0  86270-3 0  9992
2 14879 101.2673 230.8869 0212581 174.2392 302.7802 12.15589667527291
Epoch: 2025-10-13T09:44Z
TLE epoch observation values (Epoch: 2025-10-13T09:44:08.929Z)
Latitude
62.86697°
Longitude
-94.5993°
Altitude
1,533.062 km
Speed
7.145 km/s
True Right ascension
04h 54m 35s
True Declination
62° 44' 27"
Sunlit
Object was in daylight at epoch
Visualization orbit readout
Latitude
Unknown
Longitude
Unknown
Altitude
Unknown
Speed
Unknown
Apparent Right ascension
Unknown
Apparent Declination
Unknown
Sunlit
N/A
Visualization observer readout
Local Sidereal Time
12:59:13
Azimuth
Unknown
Elevation
Unknown
Doppler factor
Unknown
Orbital elements
Apogee altitude
1,779.172 km
Perigee altitude
1,439.573 km
Semi-major axis
7,987.509 km
Eccentricity
0.02126
Inclination
101.2673°
RAAN
230.8869°
Arg. of periapsis
174.2392°
True anomaly
300.7027°
Mean anomaly
302.7802°
Eccentric anomaly
301.74441°
Mean motion
3.04037 °/min
Orbital period
118.41 mins
BSTAR
0.0008627
Loading maneuver chart data...
Computing Atmospheric mass density...

Documentation

Showing up to 5 results
|